CEB590 RPMZ-RPLL

Flight info

Callsign CEB590
Flight time N/A
Altitude 39000
Route BURCO1W BURCO W3 IOO/N0442F380 B472 IBAGO IBAGO7P
Aircraft A20N/M-SDE2E3FGHIRWXY/LB1

Departure

Time 2026-04-18 09:49
Airport Zamboanga International Airport (RPMZ)

Arrival

Time N/A
Airport Ninoy Aquino International Airport (RPLL)
Time Latitude Longitude Altitude Speed Heading
2026-04-18 09:33 6.92052 122.06189 35 ft 0 kts 155°
2026-04-18 09:44 6.92051 122.06195 36 ft 1 kts 98°
2026-04-18 09:44 6.92058 122.06198 32 ft 1 kts 27°
2026-04-18 09:45 6.92091 122.06189 35 ft 12 kts 345°
2026-04-18 09:45 6.92155 122.06176 37 ft 0 kts 13°
2026-04-18 09:45 6.92175 122.06196 37 ft 9 kts 54°
2026-04-18 09:45 6.92203 122.06268 36 ft 16 kts 64°
2026-04-18 09:46 6.92206 122.06391 34 ft 20 kts 99°
2026-04-18 09:46 6.92200 122.06548 36 ft 25 kts 90°
2026-04-18 09:46 6.92195 122.06736 37 ft 29 kts 92°
2026-04-18 09:46 6.92181 122.06954 35 ft 31 kts 95°
2026-04-18 09:47 6.92172 122.07076 36 ft 17 kts 85°
2026-04-18 09:47 6.92179 122.07098 36 ft 2 kts 79°
2026-04-18 09:47 6.92166 122.07106 36 ft 4 kts 159°
2026-04-18 09:47 6.92159 122.07099 34 ft 1 kts 255°
2026-04-18 09:48 6.92163 122.07094 33 ft 3 kts 291°
2026-04-18 09:48 6.92167 122.07083 36 ft 0 kts 291°
2026-04-18 09:49 6.92177 122.06942 32 ft 62 kts 274°
2026-04-18 09:49 6.92225 122.06227 38 ft 139 kts 274°
2026-04-18 09:49 6.92316 122.05136 513 ft 160 kts 275°
2026-04-18 09:49 6.92409 122.04041 1475 ft 154 kts 274°
2026-04-18 09:50 6.92476 122.02966 2247 ft 152 kts 272°
2026-04-18 09:50 6.92536 122.01904 2415 ft 162 kts 272°
2026-04-18 09:50 6.92607 122.00676 2678 ft 193 kts 273°
2026-04-18 09:50 6.92695 121.99235 3388 ft 220 kts 273°
2026-04-18 09:51 6.92796 121.97620 4327 ft 242 kts 274°
2026-04-18 09:51 6.92908 121.95849 5300 ft 265 kts 274°
2026-04-18 09:51 6.93040 121.93929 6328 ft 280 kts 277°
2026-04-18 09:51 6.93675 121.92087 7607 ft 280 kts 303°
2026-04-18 09:52 6.95051 121.90695 8866 ft 285 kts 327°
2026-04-18 09:52 6.96899 121.89915 10014 ft 293 kts 342°
2026-04-18 09:52 6.98852 121.89357 11131 ft 296 kts 344°
2026-04-18 09:52 7.00860 121.88823 12280 ft 301 kts 344°
2026-04-18 09:53 7.02894 121.88263 13414 ft 305 kts 343°
2026-04-18 09:53 7.04954 121.87670 14434 ft 310 kts 343°
2026-04-18 09:53 7.07072 121.87130 15396 ft 316 kts 353°
2026-04-18 09:53 7.09273 121.87295 16337 ft 322 kts 15°
2026-04-18 09:54 7.11277 121.88325 17280 ft 328 kts 38°
2026-04-18 09:54 7.12990 121.89894 17993 ft 343 kts 43°
2026-04-18 09:54 7.14771 121.91630 18245 ft 368 kts 44°
2026-04-18 09:54 7.16658 121.93484 18513 ft 388 kts 44°
2026-04-18 09:55 7.18590 121.95366 19173 ft 393 kts 43°
2026-04-18 09:55 7.20574 121.97275 19922 ft 396 kts 43°
2026-04-18 09:55 7.22584 121.99196 20667 ft 400 kts 43°
2026-04-18 09:55 7.24619 122.01135 21359 ft 405 kts 43°
2026-04-18 09:56 7.26678 122.03094 22068 ft 409 kts 43°
2026-04-18 09:56 7.28761 122.05078 22771 ft 414 kts 43°
2026-04-18 09:56 7.30866 122.07082 23434 ft 418 kts 43°
2026-04-18 09:56 7.33193 122.08860 24019 ft 422 kts 31°
2026-04-18 09:57 7.35873 122.10091 24523 ft 427 kts 18°
2026-04-18 09:57 7.38797 122.10696 25089 ft 431 kts
2026-04-18 09:57 7.41791 122.11016 25548 ft 437 kts